This demonstration page uses our WeatherBlox Daily Observations layout. Learn more.

Left ArrowRight Arrow

Hourly Observations for July 9, 2015

Temp ( °F °C ) Dew Point ( °F °C ) Humidity (%) Winds ( mph kmh ) Pressure ( in mb ) Visibility ( mi km ) Precip ( " mm )
12:53 am 00:53 Clear 72 22.2 63 17.2 73 73 N 6 9 29.72 1006 10 16 0.00 0.00
1:53 am 01:53 Clear 71 21.7 63 17.2 76 76 NW 3 6 29.72 1006 10 16 0.00 0.00
2:53 am 02:53 Partly Cloudy 72 22.2 64 17.8 76 76 N 3 6 29.71 1006 10 16 0.00 0.00
3:53 am 03:53 Clear 71 21.7 64 17.8 79 79 Calm 29.71 1006 10 16 0.00 0.00
4:53 am 04:53 Partly Cloudy 71 21.7 63 17.2 76 76 S 6 9 29.73 1007 10 16 0.00 0.00
5:53 am 05:53 Partly Cloudy 70 21.1 58 14.4 66 66 S 7 11 29.74 1007 10 16 0.00 0.00
6:53 am 06:53 Mostly Sunny 69 20.6 57 13.9 66 66 SE 5 7 29.75 1008 10 16 0.00 0.00
7:53 am 07:53 Cloudy with Light Rain 68 20 60 15.6 76 76 SSW 5 7 29.77 1008 10 16 0.02 0.51
8:53 am 08:53 Partly Cloudy 68 20 61 16.1 78 78 SW 6 9 29.78 1008 10 16 0.02 0.51
9:53 am 09:53 Mostly Cloudy 70 21.1 60 15.6 71 71 S 6 9 29.78 1009 10 16 0.00 0.00
10:53 am 10:53 Mostly Sunny 72 22.2 59 15 64 64 S 7 11 29.78 1009 10 16 0.00 0.00
11:53 am 11:53 Mostly Sunny 73 22.8 59 15 62 62 S 8 13 29.80 1009 10 16 0.00 0.00
12:53 pm 12:53 Mostly Cloudy 73 22.8 61 16.1 66 66 SSE 13 20 29.80 1009 10 16 0.00 0.00
1:53 pm 13:53 Mostly Sunny 75 23.9 61 16.1 62 62 SSE 12 19 29.79 1009 10 16 0.00 0.03
2:53 pm 14:53 Mostly Sunny 79 26.1 61 16.1 54 54 WSW 12 19 29.77 1008 10 16 0.00 0.00
3:53 pm 15:53 Mostly Cloudy 79 26.1 60 15.6 52 52 SSW 13 20 29.78 1008 10 16 0.00 0.00
4:53 pm 16:53 Partly Cloudy 79 26.1 60 15.6 52 52 S 13 20 29.78 1009 10 16 0.00 0.00
5:53 pm 17:53 Partly Cloudy 79 26.1 60 15.6 52 52 S 12 19 29.77 1008 10 16 0.00 0.00
6:53 pm 18:53 Mostly Sunny 78 25.6 60 15.6 54 54 SSW 10 17 29.76 1008 10 16 0.00 0.00
7:53 pm 19:53 Partly Cloudy 77 25 60 15.6 56 56 S 6 9 29.78 1008 10 16 0.00 0.00
8:53 pm 20:53 Clear 75 23.9 60 15.6 60 60 WSW 3 6 29.77 1008 10 16 0.00 0.00
9:53 pm 21:53 Partly Cloudy 74 23.3 60 15.6 62 62 SSE 6 9 29.79 1009 10 16 0.00 0.00
10:53 pm 22:53 Cloudy 73 22.8 61 16.1 66 66 SSE 8 13 29.80 1009 10 16 0.00 0.00
11:53 pm 23:53 Cloudy 73 22.8 61 16.1 66 66 S 8 13 29.82 1010 10 16 0.00 0.00

Powered by AerisWeather